period_start,C,m1,H,J0,J1,J2,J3,J4,J5,JA,JB,JC,JD,JJ,JK,JN,#
2016-12-31 00:04:50,0.12,11.33,0.00,18.23,22.54,26.05,14.82,50.18,1013.27,2040.01,1146.99,1384.72,1573.24,600.32,604.16,40.51,0000 0000 0000 0000 000000
2016-12-31 00:09:51,0.14,11.34,0.00,18.23,22.53,26.01,14.81,50.24,1013.21,2040.01,1146.21,1384.03,1572.90,600.15,603.87,40.56,0000 0000 0000 0000 000000
2016-12-31 00:14:52,0.10,11.35,0.00,18.22,22.52,26.03,14.83,50.10,1013.21,2040.02,1145.79,1383.80,1572.11,600.45,604.30,40.61,0000 0000 0000 0000 000000
2016-12-31 00:19:54,0.14,11.36,0.00,18.20,22.51,25.96,14.82,50.08,1013.20,2040.03,1145.02,1383.04,1571.87,600.21,604.10,40.66,0000 0000 0000 0000 000000
2016-12-31 00:24:55,0.15,11.36,0.00,18.19,22.49,25.95,14.72,50.31,1013.21,2040.02,1144.23,1382.81,1571.08,599.85,603.67,40.71,0000 0000 0000 0000 000000
2016-12-31 00:29:57,0.13,11.37,0.00,18.18,22.49,25.96,14.85,50.27,1013.20,2040.07,1143.79,1382.07,1570.70,600.29,604.14,40.77,0000 0000 0000 0000 000000
2016-12-31 00:34:58,0.12,11.38,0.00,18.19,22.48,25.95,14.80,50.28,1013.20,2040.12,1143.02,1381.84,1570.02,600.31,604.15,40.82,0000 0000 0000 0000 000000
2016-12-31 00:39:59,0.25,11.39,0.00,18.20,22.47,25.94,14.79,50.27,1013.20,2040.52,1142.26,1381.05,1569.55,599.89,603.67,40.87,0000 0000 0000 0000 000000
2016-12-31 00:45:00,0.12,11.39,0.00,18.18,22.47,25.92,14.80,50.40,1013.20,2040.48,1141.59,1380.66,1568.93,599.99,603.91,40.92,0000 0000 0000 0000 000000
2016-12-31 00:50:01,0.15,11.41,0.00,18.16,22.45,25.85,14.77,50.49,1013.20,2040.65,1140.98,1380.02,1568.10,599.86,603.81,40.97,0000 0000 0000 0000 000000
2016-12-31 00:55:02,0.18,11.41,0.00,18.15,22.44,25.87,14.73,50.42,1013.21,2040.71,1140.16,1379.52,1567.50,599.76,603.54,41.02,0000 0000 0000 0000 000000
2016-12-31 01:00:03,0.13,11.42,0.00,18.15,22.44,25.88,14.85,50.47,1013.23,2040.69,1139.50,1378.99,1566.98,600.11,604.08,41.07,0000 0000 0000 0000 000000
2016-12-31 01:05:05,0.20,11.43,0.00,18.14,22.44,25.97,14.82,50.41,1013.20,2040.81,1138.74,1378.26,1566.14,599.96,603.87,41.12,0000 0000 0000 0000 000000
2016-12-31 01:10:06,0.11,11.44,0.00,18.13,22.44,25.92,14.84,50.43,1013.20,2040.92,1138.02,1377.95,1565.66,599.97,604.02,41.17,0000 0000 0000 0000 000000
2016-12-31 01:15:07,0.16,11.44,0.00,18.14,22.43,25.92,14.77,50.39,1013.20,2040.94,1137.57,1377.20,1565.00,600.00,604.01,41.22,0000 0000 0000 0000 000000
2016-12-31 01:20:08,0.09,11.45,0.00,18.14,22.42,25.90,14.72,50.38,1013.20,2040.96,1136.95,1376.96,1564.32,599.51,603.46,41.27,0000 0000 0000 0000 000000
2016-12-31 01:25:10,0.17,11.46,0.00,18.12,22.42,25.86,14.80,50.42,1013.19,2040.96,1136.13,1376.21,1563.93,599.84,603.80,41.32,0000 0000 0000 0000 000000
2016-12-31 01:30:11,0.11,11.46,0.00,18.11,22.41,25.88,14.82,50.35,1013.20,2040.96,1135.64,1375.99,1563.14,600.32,604.39,41.37,0000 0000 0000 0000 000000
2016-12-31 01:35:12,0.11,11.47,0.00,18.10,22.40,25.88,14.76,50.41,1013.19,2040.97,1135.00,1375.37,1562.92,599.65,603.74,41.42,0000 0000 0000 0000 000000
2016-12-31 01:40:14,0.14,11.48,0.00,18.11,22.39,25.89,14.74,50.32,1013.19,2040.98,1134.37,1375.00,1562.16,599.64,603.69,41.47,0000 0000 0000 0000 000000
2016-12-31 01:45:15,0.09,11.48,0.00,18.12,22.39,25.89,14.80,50.44,1013.16,2040.98,1133.99,1374.51,1561.83,599.61,603.63,41.52,0000 0000 0000 0000 000000
2016-12-31 01:50:16,0.15,11.49,0.00,18.09,22.37,25.86,14.80,50.26,1013.09,2040.99,1133.22,1374.01,1561.06,600.13,604.17,41.57,0000 0000 0000 0000 000000
2016-12-31 01:55:18,0.15,11.49,0.00,18.12,22.37,25.87,14.83,50.23,1013.07,2040.98,1132.61,1373.53,1560.66,600.31,604.23,41.62,0000 0000 0000 0000 000000
2016-12-31 02:00:19,0.08,11.50,0.00,18.10,22.37,25.85,14.73,50.23,1012.92,2040.99,1131.98,1373.01,1560.03,599.81,603.75,41.68,0000 0000 0000 0000 000000
2016-12-31 02:05:20,0.19,11.51,0.00,18.09,22.35,25.91,14.76,50.24,1012.91,2040.99,1131.17,1372.62,1559.64,599.95,603.84,41.73,0000 0000 0000 0000 000000
2016-12-31 02:10:21,0.06,11.52,0.00,18.08,22.34,25.78,14.78,50.41,1012.81,2040.99,1130.87,1372.02,1559.01,600.13,603.85,41.78,0000 0000 0000 0000 000000
2016-12-31 02:15:23,0.14,11.52,0.00,18.07,22.34,25.87,14.76,50.30,1013.01,2040.99,1130.09,1371.84,1558.53,599.68,603.62,41.83,0000 0000 0000 0000 000000
2016-12-31 02:20:24,0.14,11.53,0.00,18.07,22.34,25.85,14.85,50.33,1012.97,2040.99,1129.68,1371.09,1558.01,599.92,603.80,41.88,0000 0000 0000 0000 000000
2016-12-31 02:25:26,0.08,11.53,0.00,18.06,22.33,25.90,14.77,50.26,1013.07,2040.99,1129.00,1370.97,1557.57,600.15,604.26,41.93,0000 0000 0000 0000 000000
2016-12-31 02:30:27,0.18,11.54,0.00,18.07,22.32,25.84,14.86,50.26,1012.82,2041.00,1128.37,1370.25,1557.01,600.20,604.02,41.98,0000 0000 0000 0000 000000
2016-12-31 02:35:29,0.06,11.55,0.00,18.07,22.32,25.83,14.70,50.36,1012.83,2041.00,1127.95,1369.98,1556.50,599.71,603.59,42.03,0000 0000 0000 0000 000000
2016-12-31 02:40:30,0.17,11.55,0.00,18.06,22.32,25.88,14.77,50.35,1012.90,2041.01,1127.16,1369.44,1556.00,599.90,603.83,42.08,0000 0000 0000 0000 000000
2016-12-31 02:45:32,0.10,11.56,0.00,18.05,22.30,25.86,14.89,50.47,1012.88,2041.01,1126.77,1368.99,1555.37,600.14,604.20,42.13,0000 0000 0000 0000 000000
2016-12-31 02:50:33,0.13,11.57,0.00,18.05,22.30,25.86,14.82,50.42,1013.12,2041.02,1126.04,1368.55,1554.98,600.16,604.25,42.18,0000 0000 0000 0000 000000
2016-12-31 02:55:34,0.15,11.57,0.00,18.06,22.29,25.71,14.72,50.58,1013.19,2041.03,1125.39,1368.01,1554.29,599.96,604.01,42.23,0000 0000 0000 0000 000000
2016-12-31 03:00:35,0.11,11.58,0.00,18.04,22.29,25.81,14.86,50.63,1013.20,2041.05,1124.82,1367.61,1553.92,600.12,604.32,42.28,0000 0000 0000 0000 000000
2016-12-31 03:05:36,0.15,11.59,0.00,18.05,22.29,25.70,14.82,50.74,1013.21,2041.04,1124.04,1367.02,1553.12,600.11,604.27,42.33,0000 0000 0000 0000 000000
2016-12-31 03:10:38,0.18,11.59,0.00,18.03,22.28,25.84,14.81,50.60,1013.24,2041.11,1123.41,1366.56,1552.75,600.15,604.33,42.38,0000 0000 0000 0000 000000
2016-12-31 03:15:39,0.07,11.60,0.00,18.03,22.27,25.74,14.79,50.57,1013.23,2041.13,1122.93,1366.02,1552.03,600.25,604.35,42.43,0000 0000 0000 0000 000000
2016-12-31 03:20:40,0.20,11.61,0.00,18.03,22.28,25.84,14.78,50.62,1013.22,2041.08,1122.12,1365.49,1551.36,599.76,603.97,42.48,0000 0000 0000 0000 000000
2016-12-31 03:25:41,0.11,11.62,0.00,18.02,22.28,25.72,14.75,50.71,1013.23,2041.19,1121.67,1365.00,1550.95,600.23,604.38,42.53,0000 0000 0000 0000 000000
2016-12-31 03:30:43,0.14,11.62,0.00,18.04,22.28,25.70,14.86,50.64,1013.27,2041.18,1121.01,1364.48,1550.13,600.21,604.38,42.58,0000 0000 0000 0000 000000
2016-12-31 03:35:44,0.15,11.63,0.00,18.02,22.27,25.77,14.78,50.73,1013.23,2041.32,1120.29,1364.00,1549.76,599.67,603.94,42.64,0000 0000 0000 0000 000000
2016-12-31 03:40:45,0.15,11.64,0.00,18.02,22.27,25.70,14.73,50.59,1013.27,2041.36,1119.74,1363.50,1549.04,599.95,604.00,42.69,0000 0000 0000 0000 000000
2016-12-31 03:45:46,0.12,11.65,0.00,18.01,22.27,25.70,14.84,50.62,1013.24,2041.46,1119.01,1363.00,1548.61,600.27,604.47,42.74,0000 0000 0000 0000 000000
2016-12-31 03:50:48,0.21,11.66,0.00,18.00,22.27,25.68,14.80,50.74,1013.20,2041.62,1118.30,1362.42,1548.00,600.07,604.23,42.79,0000 0000 0000 0000 000000
2016-12-31 03:55:49,0.08,11.67,0.00,18.01,22.27,25.77,14.68,50.63,1013.20,2041.80,1117.92,1362.00,1547.24,599.65,604.01,42.84,0000 0000 0000 0000 000000
2016-12-31 04:00:51,0.19,11.67,0.00,18.01,22.27,25.75,14.78,50.58,1013.20,2041.74,1117.09,1361.32,1546.70,599.95,604.15,42.89,0000 0000 0000 0000 000000
2016-12-31 04:05:52,0.17,11.68,0.00,18.00,22.27,25.81,14.82,50.68,1013.21,2041.88,1116.36,1360.95,1546.01,600.20,604.22,42.94,0000 0000 0000 0000 000000
2016-12-31 04:10:53,0.17,11.69,0.00,18.02,22.27,25.84,14.85,50.64,1013.21,2041.91,1115.70,1360.17,1545.31,599.93,604.04,42.99,0000 0000 0000 0000 000000
2016-12-31 04:15:55,0.14,11.70,0.00,18.01,22.27,25.83,14.77,50.68,1013.20,2041.87,1114.95,1359.69,1544.63,599.78,603.90,43.04,0000 0000 0000 0000 000000
2016-12-31 04:20:56,0.14,11.71,0.00,18.00,22.25,25.77,14.85,50.64,1013.20,2041.79,1114.09,1359.01,1543.91,599.77,604.12,43.09,0000 0000 0000 0000 000000
2016-12-31 04:25:58,0.24,11.72,0.00,18.01,22.25,25.86,14.84,50.72,1013.21,2041.92,1113.31,1358.29,1543.08,599.76,604.01,43.14,0000 0000 0000 0000 000000
2016-12-31 04:30:59,0.18,11.72,0.00,18.01,22.24,25.85,14.79,50.63,1013.23,2041.96,1112.53,1357.80,1542.42,599.81,604.01,43.19,0000 0000 0000 0000 000000
2016-12-31 04:36:00,0.16,11.73,0.00,18.00,22.24,25.75,14.84,50.88,1013.25,2041.96,1111.65,1357.04,1541.75,600.01,604.30,43.24,0000 0000 0000 0000 000000
2016-12-31 04:41:02,0.18,11.75,0.00,18.00,22.24,25.77,14.81,51.49,1013.25,2041.97,1110.84,1356.33,1540.96,599.95,604.25,43.29,0000 0000 0000 0000 000000
2016-12-31 04:46:03,0.14,11.75,0.00,17.99,22.24,25.75,14.79,51.23,1013.23,2041.98,1110.02,1355.85,1540.13,599.98,604.14,43.34,0000 0000 0000 0000 000000
2016-12-31 04:51:05,0.21,11.76,0.00,17.98,22.24,25.80,14.79,51.13,1013.35,2041.98,1109.18,1355.07,1539.40,600.00,604.22,43.39,0000 0000 0000 0000 000000
2016-12-31 04:56:06,0.21,11.77,0.00,17.99,22.23,25.82,14.81,51.02,1013.38,2041.98,1108.37,1354.36,1538.61,599.81,604.15,43.44,0000 0000 0000 0000 000000
2016-12-31 05:01:07,0.17,11.78,0.00,18.01,22.23,25.77,14.80,51.04,1013.49,2041.98,1107.56,1353.71,1537.79,600.10,604.48,43.49,0000 0000 0000 0000 000000
2016-12-31 05:06:09,0.17,11.79,0.00,18.02,22.24,25.75,14.79,50.98,1013.54,2041.98,1106.63,1352.96,1536.95,599.90,604.36,43.55,0000 0000 0000 0000 000000
2016-12-31 05:11:10,0.23,11.80,0.00,18.02,22.23,25.74,14.84,51.12,1013.59,2041.99,1105.65,1352.10,1536.06,600.05,604.62,43.60,0000 0000 0000 0000 000000
2016-12-31 05:16:12,0.23,11.81,0.00,18.01,22.23,25.81,14.83,50.99,1013.65,2041.98,1104.71,1351.35,1535.17,600.13,604.62,43.65,0000 0000 0000 0000 000000
2016-12-31 05:21:13,0.20,11.82,0.00,18.01,22.24,25.82,14.87,51.12,1013.66,2041.99,1103.78,1350.64,1534.52,599.96,604.45,43.70,0000 0000 0000 0000 000000
2016-12-31 05:26:14,0.16,11.83,0.00,18.01,22.24,25.82,14.86,51.08,1013.67,2041.99,1102.91,1349.86,1533.62,599.87,604.50,43.75,0000 0000 0000 0000 000000
2016-12-31 05:31:15,0.21,11.85,0.00,18.03,22.24,25.81,14.84,51.15,1013.69,2041.99,1102.01,1349.06,1532.72,600.08,604.50,43.80,0000 0000 0000 0000 000000
2016-12-31 05:36:16,0.21,11.86,0.00,18.02,22.24,25.78,14.92,51.17,1013.68,2041.99,1101.12,1348.30,1531.91,600.18,604.74,43.85,0000 0000 0000 0000 000000
2016-12-31 05:41:18,0.19,11.86,0.00,18.03,22.24,25.83,14.85,51.15,1013.65,2041.99,1100.35,1347.71,1531.05,600.00,604.35,43.90,0000 0000 0000 0000 000000
2016-12-31 05:46:19,0.19,11.87,0.00,18.03,22.24,25.86,14.89,51.10,1013.69,2041.98,1099.51,1346.99,1530.16,600.20,604.75,43.95,0000 0000 0000 0000 000000
2016-12-31 05:51:20,0.21,11.89,0.00,18.03,22.25,25.83,14.75,51.13,1013.69,2041.98,1098.70,1346.15,1529.40,600.01,604.47,44.00,0000 0000 0000 0000 000000
2016-12-31 05:56:22,0.14,11.89,0.00,18.05,22.25,25.86,14.85,51.17,1013.69,2041.98,1097.97,1345.66,1528.67,600.33,604.80,44.05,0000 0000 0000 0000 000000
2016-12-31 06:01:23,0.15,11.90,0.00,18.05,22.26,25.87,14.80,50.99,1013.70,2041.98,1097.12,1345.00,1527.95,600.10,604.61,44.10,0000 0000 0000 0000 000000
2016-12-31 06:06:24,0.24,11.91,0.00,18.06,22.27,25.91,14.87,51.10,1013.71,2041.98,1096.34,1344.18,1527.09,599.93,604.29,44.15,0000 0000 0000 0000 000000
2016-12-31 06:11:25,0.19,11.92,0.00,18.06,22.27,25.78,14.81,51.07,1013.73,2041.98,1095.53,1343.66,1526.27,599.97,604.39,44.20,0000 0000 0000 0000 000000
2016-12-31 06:16:27,0.16,11.93,0.00,18.07,22.27,25.81,14.76,51.05,1013.74,2041.98,1094.70,1343.01,1525.48,599.88,604.24,44.25,0000 0000 0000 0000 000000
2016-12-31 06:21:28,0.16,11.94,0.00,18.07,22.27,25.87,14.89,51.19,1013.76,2041.98,1093.90,1342.39,1524.76,600.13,604.59,44.30,0000 0000 0000 0000 000000
2016-12-31 06:26:30,0.16,11.95,0.00,18.08,22.27,25.87,14.80,51.22,1013.79,2041.99,1093.05,1341.78,1523.95,599.98,604.44,44.35,0000 0000 0000 0000 000000
2016-12-31 06:31:31,0.21,11.96,0.00,18.08,22.27,25.90,14.73,51.15,1013.92,2041.98,1092.15,1341.02,1523.08,599.96,604.45,44.40,0000 0000 0000 0000 000000
2016-12-31 06:36:33,0.24,11.97,0.00,18.09,22.27,25.95,14.85,51.25,1014.00,2041.98,1091.25,1340.19,1522.16,600.04,604.61,44.46,0000 0000 0000 0000 000000
2016-12-31 06:41:34,0.21,11.98,0.00,18.11,22.29,25.90,14.83,51.33,1014.13,2041.98,1090.46,1339.58,1521.38,599.98,604.44,44.51,0000 0000 0000 0000 000000
2016-12-31 06:46:35,0.18,11.99,0.00,18.10,22.29,25.94,14.82,51.22,1014.15,2041.99,1089.58,1338.85,1520.55,600.11,604.78,44.56,0000 0000 0000 0000 000000
2016-12-31 06:51:37,0.20,12.00,0.00,18.11,22.29,25.91,14.74,51.14,1014.16,2041.98,1088.67,1338.03,1519.73,599.75,604.34,44.61,0000 0000 0000 0000 000000
2016-12-31 06:56:38,0.25,12.01,0.00,18.11,22.29,25.90,14.99,51.23,1014.17,2041.97,1087.63,1337.16,1518.72,600.43,605.00,44.66,0000 0000 0000 0000 000000
